[[{"header":{"parameterUnit":"m.s-1","parameterCategory":1,"la1":30.2991,"la2":30.254,"lo1":-89.0895,"lo2":-89.0444,"dy":0.0017,"dx":0.0017,"nx":28,"ny":28,"refTime":"2023-10-26T21:00:00:Z","depth":0,"parameterNumber":2,"parameterNumberName":"U-component_of_WINDS"},"data":[0,0,0,0,0,0,0,0,0,0,0,0,0,0,0,0,0,0,0,0,0,0,0,0,0,0,0,0,0,0,0,0,0,0,0,0,0,0,0,0,0,0,0,0,0,0,0,0,0,0,0,0,0,0,0,0,0,0,-6.4688,-6.4688,0,-6.469,-6.469,-6.469,-6.4614,-6.4612,-6.461,-6.4608,-6.4611,-6.4613,-6.4615,0,0,0,0,0,0,0,0,0,0,0,0,0,-6.4623,-6.4624,-6.4688,-6.4688,-6.4688,-6.469,-6.469,-6.469,-6.4615,-6.4612,-6.461,-6.4607,-6.461,-6.4612,-6.4615,0,0,0,0,0,0,0,0,0,0,0,0,0,-6.4641,-6.4625,-6.4688,-6.4651,-6.4647,-6.469,-6.469,-6.469,-6.4615,-6.4612,-6.4609,-6.4606,-6.4609,-6.4612,-6.4615,-6.4694,0,0,-6.4624,-6.4625,0,0,0,0,0,0,0,0,-6.464,-6.4643,-6.4656,-6.4653,-6.4649,-6.4649,-6.4668,-6.4692,-6.4616,-6.4627,-6.4608,-6.4605,-6.4626,-6.4627,-6.4634,-6.4694,-6.4694,-6.4624,-6.4626,-6.4627,-6.4628,0,0,0,0,0,0,0,-6.4639,-6.4643,-6.4689,-6.4656,-6.4652,-6.4635,-6.4634,-6.4672,-6.4644,-6.4626,-6.462,-6.4622,-6.4624,-6.4632,-6.4634,-6.4695,-6.4624,-6.4627,-6.4629,-6.463,-6.4824,-6.4827,0,0,0,0,0,0,-6.4642,-6.4642,-6.4689,-6.4689,-6.4637,-6.4639,-6.4638,-6.4652,-6.4643,-6.4639,-6.4624,-6.4618,-6.4628,-6.4631,-6.4634,-6.4727,-6.4627,-6.463,-6.4632,-6.4821,-6.4825,-6.4829,0,0,0,0,0,0,-6.4641,-6.4647,-6.4689,-6.4664,-6.4668,-6.4643,-6.466,-6.4654,-6.4662,-6.4642,-6.4637,-6.4638,-6.4626,-6.463,-6.4681,-6.4726,-6.4632,-6.4634,-6.4817,-6.4822,-6.4827,-6.4914,0,0,0,0,0,0,-6.4639,-6.4647,-6.4675,-6.4665,-6.467,-6.4734,-6.4663,-6.4656,-6.4667,-6.4659,-6.4653,-6.4649,-6.4624,-6.4677,-6.4684,-6.4728,-6.4636,-6.4813,-6.4819,-6.4825,-6.4907,-6.4921,-6.4934,0,0,0,0,0,-6.4637,-6.4699,-6.4677,-6.4683,-6.4704,-6.4737,-6.4739,-6.4709,-6.4671,-6.47,-6.4688,-6.4649,-6.4721,-6.4683,-6.469,-6.4736,-6.4809,-6.4817,-6.4825,-6.49,-6.4918,-6.4933,0,0,0,0,0,0,-6.4712,-6.4696,-6.4672,-6.4732,-6.4737,-6.4724,-6.4759,-6.4728,-6.4744,-6.4735,-6.4698,-6.4698,-6.4755,-6.4751,-6.4709,-6.4815,-6.4759,-6.4768,-6.4814,-6.4831,-6.4844,-6.4842,-6.4639,0,0,0,0,0,-6.4737,-6.4764,-6.4748,-6.4803,-6.4807,-6.4783,-6.4796,-6.4773,-6.4777,-6.4778,-6.4769,-6.4775,-6.4799,-6.4815,-6.4836,-6.4908,-6.4906,-6.4944,-6.4957,-6.4969,-6.4976,-6.5016,-6.5033,-6.4854,-6.4854,-6.4854,0,0,-6.4785,-6.478,-6.4799,-6.4818,-6.4819,-6.4849,-6.4785,-6.4819,-6.4841,-6.4783,-6.483,-6.4826,-6.483,-6.4892,-6.4919,-6.4891,-6.5027,-6.4978,-6.4987,-6.4988,-6.5026,-6.5043,-6.5058,-6.4859,-6.4858,-6.4857,0,0,-6.4889,-6.4888,-6.4934,-6.4937,-6.4941,-6.4926,-6.4938,-6.4931,-6.4926,-6.4974,-6.4932,-6.496,-6.5001,-6.5007,-6.5015,-6.513,-6.5094,-6.5138,-6.5207,-6.5247,-6.5261,-6.5273,-6.5314,-6.5329,-6.5146,-6.5146,-6.5147,0,-6.4948,-6.4991,-6.4961,-6.4999,-6.501,-6.4962,-6.501,-6.5015,-6.5025,-6.5034,-6.5003,-6.5057,-6.5056,-6.5121,-6.5149,-6.5158,-6.5171,-6.5136,-6.5261,-6.5273,-6.5284,-6.5323,-6.5338,-6.5152,-6.5151,-6.515,-6.515,0,-6.5065,-6.5097,-6.5134,-6.5146,-6.5162,-6.5205,-6.5183,-6.5203,-6.5182,-6.5171,-6.5223,-6.5222,-6.5243,-6.5258,-6.5235,-6.532,-6.5303,-6.5267,-6.5209,-6.5307,-6.5343,-6.5357,-6.5159,-6.5157,-6.5156,-6.5154,0,0,-6.5209,-6.521,-6.5224,-6.523,-6.5234,-6.5258,-6.5302,-6.5323,-6.5342,-6.5353,-6.5388,-6.5429,-6.5397,-6.5407,-6.5387,-6.5422,-6.5515,-6.5382,-6.5382,-6.5406,-6.561,-6.5634,-6.5652,-6.5494,-6.5496,-6.5499,-6.5609,0,-6.5309,-6.5381,-6.5358,-6.5431,-6.5461,-6.542,-6.5458,-6.5466,-6.5459,-6.5485,-6.5478,-6.5507,-6.5463,-6.5469,-6.5503,-6.5496,-6.5554,-6.5488,-6.5527,-6.5528,-6.5524,-6.567,-6.5696,-6.5799,-6.5623,-6.5625,-6.5627,0,-6.5433,-6.5451,-6.5527,-6.553,-6.5542,-6.5576,-6.5597,-6.5622,-6.5632,-6.5625,-6.564,-6.5614,-6.5659,-6.5605,-6.5668,-6.5623,-6.5639,-6.5639,-6.5643,-6.5642,-6.5581,-6.5673,-6.5832,-6.5847,-6.5649,-6.5647,-6.5645,0,-6.553,-6.5574,-6.5626,-6.5633,-6.5638,-6.5663,-6.5667,-6.5674,-6.569,-6.571,-6.572,-6.5745,-6.5758,-6.5779,-6.5761,-6.5724,-6.5828,-6.5772,-6.5823,-6.5824,-6.5843,-6.5841,-6.6005,-6.5858,-6.5858,-6.5857,-6.5857,0,-6.5643,-6.5691,-6.567,-6.5701,-6.5756,-6.5732,-6.5787,-6.5786,-6.5794,-6.5827,-6.5794,-6.5825,-6.5802,-6.5832,-6.582,-6.5874,-6.5881,-6.5877,-6.5872,-6.5878,-6.5879,-6.5885,-6.5877,-6.5861,-6.5861,-6.586,-6.5859,0,-6.5757,-6.5745,-6.5799,-6.5802,-6.5804,-6.5844,-6.5846,-6.5877,-6.5871,-6.5913,-6.5921,-6.5912,-6.5946,-6.5933,-6.5969,-6.5961,-6.603,-6.6018,-6.6027,-6.6022,-6.6075,-6.607,-6.6246,-6.6268,-6.6109,-6.611,-6.6112,0,-6.5828,-6.5864,-6.5872,-6.5892,-6.5898,-6.593,-6.5948,-6.5929,-6.5949,-6.5966,-6.5996,-6.6028,-6.6052,-6.611,-6.6107,-6.6136,-6.6122,-6.6183,-6.6126,-6.6132,-6.6122,-6.6119,-6.6123,-6.6192,-6.6194,-6.6196,-6.6197,0,-6.5955,-6.5949,-6.5975,-6.6001,-6.6024,-6.6043,-6.606,-6.6078,-6.6061,-6.6086,-6.6121,-6.6141,-6.618,-6.6213,-6.624,-6.6245,-6.6219,-6.6216,-6.6229,-6.6234,-6.6237,-6.6236,-6.6055,-6.6211,-6.6209,-6.6208,-6.6207,-6.6207,-6.6048,-6.608,-6.6092,-6.6124,-6.6136,-6.6154,-6.6183,-6.6183,-6.6212,-6.6243,-6.6231,-6.6273,-6.6288,-6.6321,-6.6331,-6.6365,-6.6342,-6.6361,-6.6365,-6.637,-6.6376,-6.6235,-6.637,-6.637,-6.6369,-6.6369,-6.6369,0,-6.6173,-6.618,-6.621,-6.6236,-6.6262,-6.6238,-6.6257,-6.6281,-6.6318,-6.6334,-6.636,-6.6404,-6.6437,-6.644,-6.6472,-6.6499,-6.6488,-6.6508,-6.6504,-6.6506,-6.6396,-6.638,-6.6516,-6.6516,-6.6516,-6.6516,-6.6516,-6.6516,-6.624,-6.6294,-6.629,-6.6351,-6.6358,-6.6399,-6.6412,-6.643,-6.6443,-6.6492,-6.6521,-6.6523,-6.6535,-6.6568,-6.6599,-6.6599,-6.6612,-6.6637,-6.6632,-6.6528,-6.6513,-6.6499,-6.6485,-6.664,-6.664,-6.6739,-6.674,-6.6741]},{"header":{"parameterUnit":"m.s-1","parameterCategory":1,"la1":30.2991,"la2":30.254,"lo1":-89.0895,"lo2":-89.0444,"dy":0.0017,"dx":0.0017,"nx":28,"ny":28,"refTime":"2023-10-26T21:00:00:Z","depth":0,"parameterNumber":3,"parameterNumberName":"V-component_of_WINDS"},"data":[0,0,0,0,0,0,0,0,0,0,0,0,0,0,0,0,0,0,0,0,0,0,0,0,0,0,0,0,0,0,0,0,0,0,0,0,0,0,0,0,0,0,0,0,0,0,0,0,0,0,0,0,0,0,0,0,0,0,2.8475,2.8475,0,2.8422,2.8421,2.842,2.8494,2.8497,2.8499,2.8502,2.8439,2.8435,2.8431,0,0,0,0,0,0,0,0,0,0,0,0,0,2.8638,2.8635,2.8476,2.8475,2.8474,2.8422,2.8421,2.842,2.8493,2.8497,2.85,2.8503,2.844,2.8435,2.843,0,0,0,0,0,0,0,0,0,0,0,0,0,2.8574,2.8633,2.8476,2.8505,2.8507,2.8422,2.8421,2.842,2.8493,2.8497,2.8501,2.8504,2.8442,2.8436,2.843,2.8312,0,0,2.8411,2.8408,0,0,0,0,0,0,0,0,2.8577,2.8568,2.8501,2.8502,2.8505,2.8469,2.8455,2.8384,2.8492,2.8498,2.8502,2.8506,2.8445,2.8439,2.842,2.8309,2.8306,2.841,2.8406,2.8404,2.8402,0,0,0,0,0,0,0,2.8582,2.857,2.8454,2.85,2.8502,2.8519,2.8514,2.8442,2.8449,2.8497,2.8503,2.8496,2.8447,2.8426,2.8419,2.8305,2.841,2.8405,2.8401,2.8399,2.8099,2.8095,0,0,0,0,0,0,2.8583,2.8574,2.8456,2.8452,2.8552,2.8513,2.8508,2.8476,2.8451,2.8451,2.8492,2.8499,2.8434,2.8426,2.8417,2.8279,2.8404,2.8398,2.8394,2.8103,2.8098,2.8093,0,0,0,0,0,0,2.8587,2.8572,2.8458,2.8515,2.8501,2.8506,2.847,2.8473,2.8452,2.8447,2.8448,2.847,2.8437,2.8426,2.8339,2.8278,2.8395,2.839,2.8108,2.8101,2.8095,2.8001,0,0,0,0,0,0,2.8591,2.8573,2.8529,2.8513,2.8498,2.8381,2.8466,2.8469,2.8442,2.845,2.8426,2.8425,2.8439,2.8348,2.8333,2.8271,2.8385,2.8113,2.8105,2.8097,2.801,2.7992,2.7977,0,0,0,0,0,2.8597,2.8502,2.8526,2.8511,2.8443,2.8378,2.8369,2.8389,2.8437,2.8392,2.839,2.8426,2.8288,2.8338,2.8322,2.8258,2.8117,2.8107,2.8098,2.8017,2.7996,2.7978,0,0,0,0,0,0,2.8506,2.85,2.8527,2.8425,2.8402,2.839,2.8334,2.8365,2.8326,2.8335,2.836,2.8354,2.8262,2.8251,2.8308,2.8144,2.821,2.8197,2.8154,2.8134,2.8118,2.8121,2.838,0,0,0,0,0,2.8475,2.8424,2.8421,2.8331,2.8319,2.8328,2.8301,2.8319,2.8295,2.8284,2.8275,2.8249,2.82,2.8167,2.8121,2.801,2.8006,2.7958,2.7942,2.7929,2.7916,2.7859,2.7838,2.8062,2.8062,2.8062,0,0,2.8409,2.8399,2.8365,2.8313,2.8297,2.8243,2.8319,2.8258,2.8218,2.8274,2.8193,2.8186,2.8158,2.8059,2.8015,2.8047,2.7854,2.7917,2.7906,2.7901,2.7847,2.7825,2.7806,2.8055,2.8056,2.8057,0,0,2.826,2.8248,2.8173,2.8157,2.8134,2.8142,2.8124,2.8109,2.8108,2.8027,2.807,2.8022,2.7936,2.7916,2.7894,2.7744,2.7776,2.7728,2.7643,2.7586,2.7569,2.7553,2.75,2.7481,2.7716,2.7716,2.7716,0,2.818,2.8102,2.813,2.8067,2.8043,2.8097,2.8021,2.8003,2.7965,2.7947,2.7985,2.7882,2.7867,2.7765,2.7729,2.7709,2.769,2.7729,2.757,2.7554,2.754,2.749,2.7469,2.771,2.7711,2.7711,2.7712,0,2.8005,2.795,2.7892,2.7858,2.7828,2.7759,2.7776,2.7742,2.7765,2.7768,2.7687,2.7672,2.7625,2.7603,2.7622,2.7504,2.7526,2.7566,2.7632,2.7513,2.7466,2.7446,2.7702,2.7704,2.7706,2.7707,0,0,2.7794,2.7781,2.7758,2.7745,2.7726,2.7683,2.7618,2.7576,2.7546,2.7519,2.7464,2.7394,2.7433,2.7408,2.7426,2.7377,2.726,2.7424,2.7424,2.7394,2.7131,2.71,2.7077,2.7283,2.728,2.7277,2.7133,0,2.7646,2.7535,2.756,2.7449,2.74,2.7452,2.7395,2.7377,2.738,2.7337,2.734,2.729,2.7345,2.7331,2.7285,2.7284,2.7207,2.7295,2.7231,2.7228,2.7235,2.7052,2.7018,2.6883,2.7115,2.7112,2.711,0,2.7458,2.7429,2.7314,2.7306,2.7286,2.7234,2.72,2.7159,2.714,2.7146,2.7121,2.715,2.7084,2.7154,2.7064,2.7123,2.7099,2.7095,2.709,2.7083,2.716,2.7039,2.684,2.682,2.7081,2.7083,2.7085,0,2.7317,2.7247,2.7171,2.7158,2.7146,2.7109,2.7102,2.7088,2.7062,2.7031,2.7015,2.6976,2.6954,2.6923,2.6941,2.6989,2.6848,2.6918,2.685,2.6849,2.6815,2.6817,2.6608,2.6801,2.6802,2.6802,2.6803,0,2.7148,2.7076,2.7108,2.706,2.6981,2.7012,2.6932,2.6932,2.6919,2.6872,2.6914,2.6869,2.6896,2.6852,2.6865,2.679,2.6779,2.6781,2.6785,2.6777,2.6776,2.676,2.6769,2.6797,2.6798,2.6799,2.68,0,2.6975,2.6994,2.6914,2.6911,2.6909,2.6851,2.6849,2.6805,2.6813,2.6753,2.6741,2.6753,2.6704,2.672,2.6666,2.6676,2.658,2.6596,2.6586,2.659,2.6521,2.6527,2.6293,2.6264,2.6477,2.6475,2.6473,0,2.6866,2.6813,2.6806,2.6779,2.6771,2.6726,2.6702,2.673,2.6703,2.668,2.6638,2.6595,2.6561,2.6481,2.6484,2.6444,2.6459,2.6381,2.6453,2.6447,2.6458,2.6461,2.6456,2.6365,2.6362,2.636,2.6359,0,2.6671,2.6684,2.6648,2.6616,2.6586,2.6561,2.654,2.6515,2.6544,2.651,2.6463,2.6438,2.6386,2.6342,2.6307,2.6299,2.6333,2.6337,2.6319,2.6308,2.6305,2.6306,2.6546,2.6341,2.6343,2.6344,2.6345,2.6346,2.6527,2.6483,2.6472,2.6431,2.642,2.64,2.636,2.6365,2.6327,2.6289,2.6308,2.6254,2.6239,2.6196,2.6184,2.6141,2.6171,2.6145,2.6138,2.6131,2.6122,2.6314,2.6135,2.6135,2.6136,2.6136,2.6137,0,2.6334,2.6331,2.6294,2.6265,2.6233,2.6273,2.6252,2.6222,2.6175,2.616,2.6127,2.6074,2.6033,2.6034,2.5996,2.5962,2.5976,2.595,2.5952,2.595,2.6097,2.6117,2.5939,2.5939,2.5939,2.5939,2.5939,2.5939,2.623,2.6158,2.617,2.6093,2.6091,2.604,2.6025,2.6007,2.5996,2.5936,2.5903,2.5906,2.5897,2.5859,2.5823,2.5825,2.5808,2.5776,2.5783,2.592,2.594,2.5958,2.5977,2.5772,2.5772,2.564,2.5638,2.5637]}]]